Location: Cheyres
(46.8153°N, 6.7877°E)
Time: 00:06:08
(UTC+00:00)

Tiros 1 - Pass Details

Date: 29 May 2022
Orbit: 629 x 663 km, 48.4° (Epoch: 05 July)

Event Time Altitude Azimuth Distance (km) Brightness Sun altitude
Exits shadow 23:16:29 46° 123° (ESE) 850 7.4 -21.4°
Drops below altitude 10° 23:20:19 10° 77° (ENE) 2,018 9.8 -21.4°
Sets 23:22:42 0° 72° (ENE) 2,933 10.7 -21.4°
